I2476 LIEO-LFKJ

Flight info

Callsign I2476
Flight time N/A
Altitude 20000
Route TERE7K TEREZ TERE2N
Aircraft A320/M-S/7123

Departure

Time N/A
Airport Olbia Costa Smeralda Airport (LIEO)

Arrival

Time 2026-05-07 17:13
Airport Ajaccio Napoléon Bonaparte airport (LFKJ)
Time Latitude Longitude Altitude Speed Heading
2026-05-07 16:43 40.89375 9.50391 0 ft 0 kts 156°
2026-05-07 16:44 40.89325 9.50731 0 ft 0 kts 55°
2026-05-07 16:46 40.89355 9.50788 0 ft 33 kts 55°
2026-05-07 16:46 40.89605 9.51261 0 ft 100 kts 55°
2026-05-07 16:46 40.90085 9.52194 0 ft 157 kts 59°
2026-05-07 16:46 40.90630 9.53379 0 ft 197 kts 57°
2026-05-07 16:47 40.91300 9.54694 0 ft 229 kts 54°
2026-05-07 16:47 40.92097 9.56168 0 ft 227 kts 53°
2026-05-07 16:47 40.92948 9.57711 0 ft 233 kts 53°
2026-05-07 16:47 40.93824 9.59300 0 ft 234 kts 53°
2026-05-07 16:48 40.94739 9.60972 0 ft 236 kts 54°
2026-05-07 16:48 40.95659 9.62669 0 ft 239 kts 54°
2026-05-07 16:48 40.96597 9.64397 0 ft 241 kts 50°
2026-05-07 16:48 40.97892 9.65560 0 ft 241 kts 11°
2026-05-07 16:49 40.99455 9.65542 0 ft 246 kts 348°
2026-05-07 16:49 41.01045 9.64961 0 ft 247 kts 339°
2026-05-07 16:49 41.02470 9.64177 0 ft 248 kts 334°
2026-05-07 16:49 41.03916 9.63181 0 ft 251 kts 329°
2026-05-07 16:50 41.05308 9.62069 0 ft 253 kts 327°
2026-05-07 16:50 41.06558 9.60848 0 ft 255 kts 317°
2026-05-07 16:50 41.07727 9.59326 0 ft 271 kts 312°
2026-05-07 16:50 41.08901 9.57550 0 ft 279 kts 309°
2026-05-07 16:51 41.09991 9.55771 0 ft 285 kts 308°
2026-05-07 16:51 41.11139 9.53805 0 ft 292 kts 307°
2026-05-07 16:51 41.12353 9.51654 0 ft 298 kts 306°
2026-05-07 16:51 41.13558 9.49476 0 ft 303 kts 306°
2026-05-07 16:52 41.14370 9.47993 0 ft 306 kts 306°
2026-05-07 16:52 41.15543 9.45838 0 ft 310 kts 306°
2026-05-07 16:52 41.16763 9.43590 0 ft 313 kts 305°
2026-05-07 16:52 41.18014 9.41283 0 ft 315 kts 306°
2026-05-07 16:53 41.19288 9.38938 0 ft 317 kts 306°
2026-05-07 16:53 41.20550 9.36540 0 ft 317 kts 303°
2026-05-07 16:53 41.21716 9.34048 0 ft 318 kts 300°
2026-05-07 16:53 41.22800 9.31543 0 ft 318 kts 299°
2026-05-07 16:54 41.23847 9.28994 0 ft 335 kts 298°
2026-05-07 16:54 41.24958 9.26177 0 ft 353 kts 297°
2026-05-07 16:54 41.26097 9.23209 0 ft 369 kts 296°
2026-05-07 16:54 41.27043 9.20701 0 ft 381 kts 296°
2026-05-07 16:55 41.28077 9.17928 0 ft 393 kts 296°
2026-05-07 16:55 41.29281 9.14678 0 ft 405 kts 296°
2026-05-07 16:55 41.30476 9.11436 0 ft 415 kts 296°
2026-05-07 16:55 41.31666 9.08235 0 ft 413 kts 298°
2026-05-07 16:56 41.33278 9.05478 0 ft 407 kts 319°
2026-05-07 16:56 41.35505 9.03660 0 ft 404 kts 335°
2026-05-07 16:56 41.40449 9.01103 0 ft 415 kts 341°
2026-05-07 16:57 41.43086 8.99923 0 ft 424 kts 341°
2026-05-07 16:57 41.45620 8.98835 0 ft 438 kts 342°
2026-05-07 16:57 41.48183 8.97763 0 ft 436 kts 342°
2026-05-07 16:57 41.50859 8.96662 0 ft 427 kts 342°
2026-05-07 16:58 41.53511 8.95581 0 ft 425 kts 343°
2026-05-07 16:58 41.56113 8.94524 0 ft 422 kts 343°
2026-05-07 16:58 41.58748 8.93456 0 ft 417 kts 343°
2026-05-07 16:58 41.61366 8.92396 0 ft 414 kts 343°
2026-05-07 16:59 41.63984 8.91336 0 ft 411 kts 343°
2026-05-07 16:59 41.66497 8.90317 0 ft 408 kts 343°
2026-05-07 16:59 41.69030 8.89289 0 ft 404 kts 343°
2026-05-07 16:59 41.71670 8.88217 0 ft 400 kts 343°
2026-05-07 17:00 41.74188 8.87192 0 ft 398 kts 343°
2026-05-07 17:00 41.76623 8.86201 0 ft 394 kts 343°
2026-05-07 17:00 41.79070 8.85203 0 ft 389 kts 342°
2026-05-07 17:00 41.81393 8.84255 0 ft 388 kts 342°
2026-05-07 17:01 41.83715 8.83306 0 ft 389 kts 342°
2026-05-07 17:01 41.86132 8.82318 0 ft 387 kts 342°
2026-05-07 17:01 41.88413 8.81298 0 ft 385 kts 335°
2026-05-07 17:01 41.90594 8.79586 0 ft 384 kts 325°
2026-05-07 17:02 41.92668 8.77517 0 ft 382 kts 321°
2026-05-07 17:02 41.94527 8.75427 0 ft 380 kts 319°
2026-05-07 17:02 41.96329 8.73237 0 ft 379 kts 316°
2026-05-07 17:02 41.97915 8.71201 0 ft 378 kts 315°
2026-05-07 17:03 41.99332 8.69220 0 ft 377 kts 309°
2026-05-07 17:03 42.00645 8.66728 0 ft 375 kts 301°
2026-05-07 17:03 42.01653 8.64190 0 ft 373 kts 292°
2026-05-07 17:03 42.02097 8.61253 0 ft 372 kts 270°
2026-05-07 17:04 42.01703 8.58365 0 ft 372 kts 249°
2026-05-07 17:04 42.00433 8.55751 0 ft 354 kts 224°
2026-05-07 17:04 41.98386 8.54107 0 ft 337 kts 196°
2026-05-07 17:04 41.96140 8.54000 0 ft 315 kts 166°
2026-05-07 17:05 41.94366 8.55199 0 ft 293 kts 142°
2026-05-07 17:05 41.93061 8.56730 0 ft 274 kts 136°
2026-05-07 17:05 41.91790 8.58382 0 ft 255 kts 143°
2026-05-07 17:05 41.90339 8.59476 0 ft 254 kts 156°
2026-05-07 17:06 41.88771 8.60393 0 ft 258 kts 158°
2026-05-07 17:06 41.87228 8.61158 0 ft 254 kts 165°
2026-05-07 17:06 41.85661 8.61654 0 ft 253 kts 169°
2026-05-07 17:06 41.83967 8.62094 0 ft 242 kts 170°
2026-05-07 17:07 41.82396 8.62492 0 ft 226 kts 165°
2026-05-07 17:07 41.80959 8.63167 0 ft 215 kts 158°
2026-05-07 17:07 41.79642 8.63935 0 ft 212 kts 156°
2026-05-07 17:07 41.78539 8.64679 0 ft 207 kts 143°
2026-05-07 17:08 41.77848 8.66008 0 ft 205 kts 107°
2026-05-07 17:08 41.77913 8.67738 0 ft 203 kts 66°
2026-05-07 17:08 41.78771 8.68944 0 ft 195 kts 22°
2026-05-07 17:08 41.79942 8.69023 0 ft 188 kts 347°
2026-05-07 17:09 41.81027 8.68944 0 ft 192 kts 14°
2026-05-07 17:09 41.81963 8.69919 0 ft 196 kts 58°
2026-05-07 17:09 41.82557 8.71360 0 ft 195 kts 49°
2026-05-07 17:09 41.83487 8.72155 0 ft 179 kts 22°
2026-05-07 17:10 41.84469 8.72856 0 ft 181 kts 50°
2026-05-07 17:10 41.84934 8.74121 0 ft 182 kts 66°
2026-05-07 17:10 41.85435 8.75474 0 ft 162 kts 58°
2026-05-07 17:10 41.86097 8.76330 0 ft 133 kts 24°
2026-05-07 17:11 41.86883 8.76779 0 ft 121 kts 26°
2026-05-07 17:11 41.87651 8.77339 0 ft 149 kts 29°
2026-05-07 17:11 41.88494 8.77902 0 ft 146 kts 22°
2026-05-07 17:11 41.89323 8.78386 0 ft 150 kts 22°
2026-05-07 17:12 41.90208 8.78905 0 ft 140 kts 23°
2026-05-07 17:12 41.90950 8.79345 0 ft 131 kts 24°
2026-05-07 17:12 41.91620 8.79778 0 ft 113 kts 25°
2026-05-07 17:12 41.92089 8.80065 0 ft 59 kts 24°
2026-05-07 17:13 41.92283 8.80023 0 ft 31 kts 287°
2026-05-07 17:13 41.92238 8.79815 0 ft 25 kts 226°
2026-05-07 17:13 41.92209 8.79671 0 ft 16 kts 349°
2026-05-07 17:13 41.92254 8.79628 0 ft 7 kts 259°
2026-05-07 17:14 41.92236 8.79590 0 ft 4 kts 232°
2026-05-07 17:14 41.92229 8.79578 0 ft 0 kts 232°